This is the latest recevied weather packets stored in our database for station/object K5NWZ. If no packets are shown the sender has not sent any weather packets the latest 10 day(s).
| Time | Temp. | Humidity | Pressure | Rain* | Wind** | Luminosity | Snow |
|---|---|---|---|---|---|---|---|
| 1778186699 | 21.11° C | 28% | 1021.9 hPa | 0 mm | - | 760 W/m² | - |
| 1778186397 | 21.11° C | 26% | 1022.1 hPa | 0 mm | - | 733 W/m² | - |
| 1778186095 | 21.11° C | 29% | 1022.1 hPa | 0 mm | - | 746 W/m² | - |
| 1778185791 | 20° C | 29% | 1022.3 hPa | 0 mm | - | 759 W/m² | - |
| 1778185487 | 21.11° C | 29% | 1022.4 hPa | 0 mm | - | 824 W/m² | - |
| 1778185183 | 21.11° C | 28% | 1022.4 hPa | 0 mm | - | 530 W/m² | - |
| 1778184878 | 20° C | 29% | 1022.5 hPa | 0 mm | - | 830 W/m² | - |
| 1778184576 | 19.44° C | 30% | 1022.5 hPa | 0 mm | - | 859 W/m² | - |
| 1778184271 | 20° C | 30% | 1022.4 hPa | 0 mm | - | 223 W/m² | - |
| 1778183967 | 19.44° C | 30% | 1022.6 hPa | 0 mm | - | 231 W/m² | - |
| 1778183665 | 19.44° C | 30% | 1022.6 hPa | 0 mm | - | 212 W/m² | - |
| 1778183362 | 19.44° C | 30% | 1022.5 hPa | 0 mm | - | 277 W/m² | - |
| 1778183058 | 19.44° C | 30% | 1022.4 hPa | 0 mm | - | 789 W/m² | - |
| 1778182754 | 18.89° C | 30% | 1022.7 hPa | 0 mm | - | 968 W/m² | - |
| 1778182447 | 18.89° C | 31% | 1022.6 hPa | 0 mm | - | 221 W/m² | - |
| 1778182143 | 18.89° C | 30% | 1022.7 hPa | 0 mm | - | 238 W/m² | - |
| 1778181839 | 18.33° C | 30% | 1022.8 hPa | 0 mm | - | 298 W/m² | - |
| 1778181536 | 18.33° C | 31% | 1022.8 hPa | 0 mm | - | 252 W/m² | - |
| 1778181232 | 18.33° C | 30% | 1023 hPa | 0 mm | - | 268 W/m² | - |
| 1778180929 | 18.89° C | 29% | 1022.7 hPa | 0 mm | - | 252 W/m² | - |
| 1778180627 | 18.89° C | 30% | 1023 hPa | 0 mm | - | 277 W/m² | - |
| 1778180325 | 19.44° C | 30% | 1023.2 hPa | 0 mm | - | 268 W/m² | - |
| 1778180023 | 19.44° C | 30% | 1023.1 hPa | 0 mm | - | 262 W/m² | - |
| 1778179719 | 18.89° C | 30% | 1023.1 hPa | 0 mm | - | 244 W/m² | - |
| 1778179418 | 19.44° C | 29% | 1023.4 hPa | 0 mm | - | 336 W/m² | - |
* Rain latest hour (hover to see other rain measurements)
** Current wind speed in m/s (hover to see current wind gust speed)